[Iaude] MPEC P53: 2024 PN [a=2.09,e=0.43,i=4.7,H=24.5]
    mpec at cfa.harvard.edu 
    mpec at cfa.harvard.edu
       
    Sat Aug  3 19:28:02 EDT 2024
    
    
  
M.P.E.C. 2024-P53                                Issued 2024 August 3, 23:26 UT
     The Minor Planet Electronic Circulars contain information on unusual
         minor planets, routine data on comets and natural satellites,
         and occasional editorial announcements.  They are published
    on behalf of Division F of the International Astronomical Union by the
          Minor Planet Center, Smithsonian Astrophysical Observatory,
                          Cambridge, MA 02138, U.S.A.
			  
             Prepared using the Tamkin Foundation Computer Network
                              MPC at CFA.HARVARD.EDU
            URL https://www.minorplanetcenter.net/    ISSN 1523-6714
                                    2024 PN                                     
Observations:
     K24P00N  C2024 06 30.49243420 44 59.641+08 39 02.03         22.72GVEP053F51
     K24P00N  C2024 06 30.50115120 45 01.111+08 39 11.24         22.61GVEP053F51
     K24P00N  C2024 06 30.51002520 45 02.625+08 39 20.71         23.48GVEP053F51
     K24P00N  C2024 07 28.41597321 59 23.884+11 06 29.20         22.43GVEP053F51
     K24P00N  C2024 07 28.42732221 59 25.122+11 06 24.08         22.70GVEP053F51
     K24P00N* C2024 08 01.42831322 06 59.490+10 29 05.99         22.82wXEP053F52
     K24P00N  C2024 08 01.43944322 07 00.522+10 28 58.88         22.84wXEP053F52
     K24P00N  C2024 08 01.45057222 07 01.533+10 28 51.69         22.65wXEP053F52
     K24P00N 3C2024 08 02.51884522 08 52.136+10 16 41.63         22.69GVEP053T14
     K24P00N 3C2024 08 02.52005322 08 52.234+10 16 40.75         22.78GVEP053T14
     K24P00N 3C2024 08 02.52126222 08 52.345+10 16 39.87         22.59GVEP053T14
     K24P00N KC2024 08 03.24034422 10 06.62 +10 07 45.8          22.5 GVEP053H21
     K24P00N KC2024 08 03.24612422 10 07.12 +10 07 41.4          22.7 GVEP053H21
     K24P00N KC2024 08 03.25045922 10 07.50 +10 07 38.1          22.3 GVEP053H21
     K24P00N 1C2024 08 03.51491822 10 32.801+10 04 33.07         22.73GVEP053T12
     K24P00N 1C2024 08 03.52612822 10 33.731+10 04 24.29         22.58GVEP053T12
Observer details:
F51 Pan-STARRS 1, Haleakala.  Observers J. Herman, T. Lowe, P. Minguez, A.
    Schultz, I. Smith.  Measurers K. Chambers, T. de Boer, J. Fairlamb, H.
    Gao, M. Huber, C.-C. Lin, E. Magnier, Y. Ramanjooloo, R. Wainscoat, R.
    Weryk.  1.8-m Ritchey-Chretien + CCD.
F52 Pan-STARRS 2, Haleakala.  Observers J. Herman, T. Lowe, P. Minguez, A.
    Schultz, I. Smith.  Measurers K. Chambers, T. de Boer, J. Fairlamb, H.
    Gao, M. Huber, C.-C. Lin, E. Magnier, Y. Ramanjooloo, R. Wainscoat, R.
    Weryk.  1.8-m Ritchey-Chretien + CCD.
H21 Astronomical Research Observatory, Westfield.  Observer R. Holmes.
    Measurers T. Linder, R. Holmes.  1.3-m f/4.0 astrograph + CCD.
T12 University of Hawaii 88-inch telescope, Maunakea.  Observer Y.
    Ramanjooloo.  Measurers R. Weryk, Y. Ramanjooloo, J. Fairlamb, R.
    Wainscoat.  2.24-m f/10.1 reflector + CCD.
T14 Canada-France-Hawaii Telescope, Maunakea.  Observers R. Wainscoat, A.
    Acohido, H. Flewelling.  Measurers R. Weryk, R. Wainscoat.  3.6-m f/4.1
    reflector + CCD.
Orbital elements:
2024 PN                                                  Earth MOID = 0.1853 AU
Epoch 2024 Oct. 17.0 TT = JDT 2460600.5                 MPC                     
M  31.93301              (2000.0)            P               Q                  
n   0.32660466     Peri.  109.92422     +0.41570340     +0.90947554             
a   2.0882755      Node   184.65582     -0.86228582     +0.39176885             
e   0.4347262      Incl.    4.73672     -0.28922975     +0.13918123             
P   3.02           H   24.54          G   0.15           U   6                  
Residuals in seconds of arc
240630 F51  0.2+  0.0     240801 F52  0.1+  0.1+    240803 H21  0.1+  0.4+
240630 F51  0.1-  0.0     240801 F52  0.0   0.1+    240803 H21  0.1+  0.2+
240630 F51  0.1-  0.0     240802 T14  0.0   0.0     240803 T12  0.0   0.1-
240728 F51  0.3+  0.4-    240802 T14  0.1-  0.0     240803 T12 (0.1-  0.3-)
240728 F51  0.8+  0.5-    240802 T14  0.0   0.0
240801 F52  0.2-  0.0     240803 H21  0.2+  0.6+
Ephemeris:
2024 PN                  a,e,i = 2.09, 0.43, 5                   q = 1.1804
Date    TT    R. A. (2000) Decl.     Delta      r    Elong.  Phase     V
2024 07 04    20 55 45.9 +09 36 24   0.2181  1.1828   135.7    36.9    23.1
...
2024 07 19    21 37 57.2 +11 38 19   0.2114  1.1832   138.7    34.5    23.0
...
2024 07 27    21 56 28.0 +11 16 33   0.2139  1.1918   142.2    31.5    22.9
...
2024 08 02    22 07 58.7 +10 22 50   0.2186  1.2019   145.8    28.3    22.9
2024 08 03    22 09 41.6 +10 11 03   0.2196  1.2039   146.5    27.8    22.9
2024 08 04    22 11 20.9 +09 58 30   0.2207  1.2060   147.1    27.2    22.9
...
2024 08 10    22 20 07.4 +08 29 09   0.2290  1.2201   151.7    23.2    22.9
...
2024 08 18    22 29 03.4 +06 02 15   0.2448  1.2433   158.5    17.3    22.9
...
2024 09 02    22 39 42.5 +01 00 20   0.2919  1.2981   171.0     7.0    23.0
A. U. Tomatic                (C) Copyright 2024 MPC           M.P.E.C. 2024-P53
    
    
More information about the Iaude
mailing list